1488006000.11,55573,7.5,72532.0,-15.05,-16.65,-16.69,0,*6C
1488006001.38,55574,7.44,72538.3,-15.09,-16.59,-16.69,0,*68
1488006002.59,55575,7.5,72574.8,-15.07,-16.97,-16.97,0,*64
1488006003.89,55576,7.5,72564.3,-15.09,-17.03,-17.07,0,*6D
1488006005.19,55577,7.44,72560.5,-15.09,-17.45,-17.63,0,*6C
1488006006.48,55578,7.5,72562.0,-15.09,-17.59,-17.63,0,*6E
1488006007.77,55579,7.44,72560.0,-15.09,-17.59,-17.63,0,*6F
1488006009.01,55580,7.5,72564.5,-15.13,-17.31,-17.35,0,*6F
1488006010.31,55581,7.44,72562.5,-15.13,-17.21,-17.21,0,*6A
1488006011.57,55582,7.44,72556.0,-15.15,-17.11,-17.21,0,*6C
1488006012.84,55583,7.44,72556.0,-15.15,-17.03,-17.03,0,*6E
1488006014.05,55584,7.44,72558.3,-15.15,-16.93,-16.93,0,*69
1488006015.29,55585,7.44,72550.5,-15.17,-16.79,-16.93,0,*6E
1488006016.53,55586,7.44,72548.8,-15.19,-16.93,-17.07,0,*6B
1488006017.82,55587,7.5,72550.3,-15.17,-17.03,-17.03,0,*68
1488006019.12,55588,7.44,72546.5,-15.17,-17.25,-17.41,0,*65
1488006020.36,55589,7.44,72542.0,-15.19,-17.31,-17.41,0,*6F
1488006021.62,55590,7.44,72542.8,-15.19,-17.25,-17.41,0,*62
1488006022.89,55591,7.5,72550.8,-15.19,-17.17,-17.17,0,*61
1488006024.2,55592,7.44,72542.8,-15.21,-17.17,-17.41,0,*6A
1488006025.43,55593,7.44,72540.0,-15.23,-17.31,-17.41,0,*6D
1488006026.68,55594,7.44,72540.3,-15.21,-17.73,-17.73,0,*6F
1488006027.97,55595,7.44,72544.8,-15.21,-17.55,-17.59,0,*62
1488006029.22,55596,7.5,72540.3,-15.23,-17.49,-17.59,0,*6E
1488006030.48,55597,7.44,72530.5,-15.23,-17.63,-17.79,0,*65
1488006031.74,55598,7.44,72528.5,-15.25,-17.59,-17.59,0,*67
1488006033.0,55599,7.5,72530.3,-15.25,-17.45,-17.35,0,*61
1488006034.26,55600,7.44,72534.0,-15.25,-17.11,-17.03,0,*66
1488006035.53,55601,7.5,72540.0,-15.25,-16.69,-16.69,0,*64
1488006036.82,55602,7.5,72538.8,-15.27,-17.07,-17.21,0,*61
1488006038.1,55603,7.5,72540.3,-15.27,-17.21,-17.25,0,*60
1488006039.39,55604,7.44,72542.8,-15.27,-17.07,-17.03,0,*67
1488006040.68,55605,7.5,72548.5,-15.27,-17.21,-17.25,0,*66
1488006041.97,55606,7.44,72550.3,-15.27,-17.41,-17.41,0,*61
1488006043.24,55607,7.44,72550.5,-15.27,-17.25,-17.35,0,*61
1488006044.49,55608,7.5,72548.3,-15.27,-17.79,-17.69,0,*6E
1488006045.79,55609,7.5,72584.8,-15.27,-17.97,-17.97,0,*6E
1488006047.05,55610,7.5,72590.0,-15.29,-17.63,-17.79,0,*63
1488006048.29,55611,7.5,72576.8,-15.29,-17.63,-17.69,0,*63
1488006049.53,55612,7.44,72562.3,-15.29,-17.55,-17.69,0,*65
1488006050.82,55613,7.44,72508.5,-15.31,-17.55,-17.59,0,*6E
1488006052.09,55614,7.5,72506.0,-15.29,-17.45,-17.55,0,*6D
1488006053.33,55615,7.5,72500.5,-15.31,-17.69,-17.73,0,*6F
1488006054.63,55616,7.44,72496.5,-15.31,-17.45,-17.59,0,*6A
1488006055.86,55617,7.44,72492.5,-15.31,-17.73,-17.73,0,*66
1488006057.16,55618,7.5,72500.0,-15.31,-17.41,-17.41,0,*69
1488006058.43,55619,7.44,72500.0,-15.37,-17.03,-17.17,0,*6B
1488006059.72,55620,7.44,72484.0,-15.35,-17.07,-17.21,0,*62
1488006061.01,55621,7.44,72504.8,-15.35,-17.11,-17.11,0,*67
1488006062.27,55622,7.44,72492.3,-15.37,-17.59,-17.63,0,*6F
1488006063.51,55623,7.44,72498.0,-15.35,-16.97,-16.97,0,*65
1488006064.72,55624,7.44,72502.3,-15.37,-16.83,-16.93,0,*61
1488006065.99,55625,7.5,72500.0,-15.35,-16.55,-16.65,0,*60
1488006067.26,55626,7.5,72508.8,-15.35,-16.55,-16.69,0,*6F
1488006068.51,55627,7.5,72516.3,-15.35,-16.55,-16.55,0,*61
1488006069.75,55628,7.44,72516.8,-15.35,-16.41,-16.41,0,*6E
1488006071.01,55629,7.44,72518.5,-15.31,-16.27,-16.37,0,*6A
1488006072.26,55630,7.44,72518.5,-15.31,-16.37,-16.41,0,*62
1488006073.52,55631,7.44,72526.3,-15.29,-16.23,-16.23,0,*6B
1488006074.73,55632,7.44,72532.0,-15.29,-16.45,-16.45,0,*68
1488006075.98,55633,7.44,72534.8,-15.29,-16.51,-16.59,0,*61
1488006077.2,55634,7.5,72538.8,-15.29,-16.45,-16.59,0,*63
1488006078.44,55635,7.44,72540.0,-15.29,-16.45,-16.51,0,*6A
1488006079.68,55636,7.44,72544.3,-15.29,-16.59,-16.65,0,*63
1488006080.95,55637,7.44,72544.8,-15.27,-16.65,-16.75,0,*62
1488006082.23,55638,7.5,72550.0,-15.27,-16.51,-16.65,0,*6B
1488006083.5,55639,7.5,72552.8,-15.27,-16.51,-16.59,0,*65
1488006084.77,55640,7.44,72558.5,-15.27,-16.65,-16.75,0,*62
1488006085.99,55641,7.5,72564.5,-15.25,-16.45,-16.55,0,*61
1488006087.22,55642,7.44,72564.0,-15.27,-16.37,-16.37,0,*61
1488006088.48,55643,7.44,72566.8,-15.27,-16.45,-16.51,0,*65
1488006089.7,55644,7.44,72568.5,-15.25,-16.59,-16.59,0,*65
1488006090.97,55645,7.44,72570.0,-15.27,-16.65,-16.79,0,*6B
1488006092.19,55646,7.5,72564.8,-15.25,-16.55,-16.59,0,*6B
1488006093.41,55647,7.44,72562.5,-15.25,-16.41,-16.41,0,*66
1488006094.64,55648,7.44,72556.3,-15.27,-15.99,-15.99,0,*6B
1488006095.88,55649,7.44,72550.8,-15.25,-15.99,-15.85,0,*65
1488006097.15,55650,7.44,72534.5,-15.23,-16.09,-16.13,0,*6D
1488006098.39,55651,7.44,72532.5,-15.23,-15.99,-16.09,0,*6D
1488006099.68,55652,7.44,72528.8,-15.21,-15.81,-15.89,0,*6E
1488006100.93,55653,7.44,72528.3,-15.21,-15.95,-16.03,0,*6B
1488006102.23,55654,7.44,72526.8,-15.21,-15.89,-15.89,0,*60
1488006103.47,55655,7.44,72530.0,-15.19,-16.09,-16.03,0,*60
1488006104.74,55656,7.44,72528.8,-15.19,-16.09,-16.23,0,*61
1488006106.01,55657,7.5,72530.8,-15.19,-16.27,-16.27,0,*68
1488006107.3,55658,7.44,72524.3,-15.17,-16.17,-16.09,0,*66
1488006108.54,55659,7.44,72526.8,-15.17,-15.99,-16.03,0,*68
1488006109.8,55660,7.44,72532.3,-15.17,-15.89,-16.03,0,*63
1488006111.07,55661,7.44,72534.3,-15.17,-16.45,-16.65,0,*61
1488006112.35,55662,7.44,72532.8,-15.17,-16.51,-16.51,0,*60
1488006113.56,55663,7.44,72530.3,-15.15,-16.37,-16.45,0,*66
1488006114.79,55664,7.44,72524.8,-15.15,-16.59,-16.59,0,*64
1488006116.06,55665,7.44,72526.5,-15.13,-16.41,-16.31,0,*64
1488006117.35,55666,7.44,72530.3,-15.17,-16.09,-16.23,0,*6C
1488006118.61,55667,7.44,72538.0,-15.15,-16.31,-16.23,0,*64
1488006119.83,55668,7.44,72538.0,-15.15,-16.45,-16.37,0,*6D
1488006121.04,55669,7.44,72538.8,-15.15,-16.37,-16.37,0,*69
1488006122.26,55670,7.44,72544.5,-15.15,-16.37,-16.37,0,*61
1488006123.5,55671,7.44,72548.8,-15.13,-16.55,-16.55,0,*66
1488006124.79,55672,7.44,72544.0,-15.13,-16.31,-16.31,0,*65
1488006126.09,55673,7.44,72540.5,-15.13,-16.13,-16.17,0,*60
1488006127.34,55674,7.44,72536.0,-15.13,-16.45,-16.41,0,*67
1488006128.59,55675,7.44,72532.5,-15.13,-16.55,-16.55,0,*62
1488006129.83,55676,7.44,72542.5,-15.13,-16.45,-16.55,0,*60
1488006131.07,55677,7.44,72538.5,-15.13,-16.45,-16.45,0,*60
1488006132.31,55678,7.44,72538.3,-15.15,-16.59,-16.65,0,*66
1488006133.56,55679,7.44,72532.8,-15.13,-16.45,-16.59,0,*63
1488006134.8,55680,7.5,72538.8,-15.13,-16.45,-16.45,0,*68
1488006136.05,55681,7.44,72544.3,-15.13,-16.55,-16.59,0,*65
1488006137.29,55682,7.44,72546.3,-15.13,-16.41,-16.45,0,*6E
1488006138.54,55683,7.44,72544.8,-15.13,-16.55,-16.59,0,*67
1488006139.79,55684,7.44,72544.8,-15.13,-16.45,-16.55,0,*6D
1488006141.02,55685,7.44,72546.0,-15.13,-16.45,-16.45,0,*6D
1488006142.29,55686,7.44,72550.8,-15.13,-16.31,-16.41,0,*69
1488006143.54,55687,7.44,72550.3,-15.13,-16.41,-16.41,0,*6F
1488006144.8,55688,7.44,72550.8,-15.13,-16.31,-16.41,0,*67
1488006146.06,55689,7.44,72548.0,-15.13,-16.31,-16.45,0,*62
1488006147.3,55690,7.5,72552.3,-15.13,-16.41,-16.45,0,*6D
1488006148.57,55691,7.5,72552.8,-15.09,-16.27,-16.41,0,*63
1488006149.87,55692,7.44,72550.8,-15.09,-16.17,-16.17,0,*60
1488006151.16,55693,7.44,72548.8,-15.09,-16.17,-16.27,0,*62
1488006152.4,55694,7.44,72550.0,-15.07,-15.99,-16.09,0,*62
1488006153.69,55695,7.44,72554.3,-15.09,-16.27,-16.27,0,*67
1488006154.95,55696,7.44,72546.3,-15.07,-16.13,-16.23,0,*69
1488006156.22,55697,7.44,72548.5,-15.09,-16.45,-16.51,0,*60
1488006157.47,55698,7.5,72554.3,-15.09,-16.55,-16.55,0,*6A
1488006158.73,55699,7.44,72548.8,-15.09,-16.31,-16.41,0,*6C
1488006160.0,55700,7.44,72552.0,-15.07,-16.13,-16.23,0,*67
1488006161.21,55701,7.44,72554.3,-15.07,-16.45,-16.55,0,*64
1488006162.46,55702,7.44,72556.0,-15.09,-16.59,-16.55,0,*64
1488006163.73,55703,7.44,72552.8,-15.09,-16.59,-16.69,0,*6A
1488006164.97,55704,7.44,72552.3,-15.07,-16.55,-16.65,0,*63
1488006166.22,55705,7.5,72558.5,-15.09,-16.55,-16.55,0,*6F
1488006167.46,55706,7.44,72556.5,-15.07,-16.27,-16.41,0,*62
1488006168.72,55707,7.44,72560.3,-15.07,-16.27,-16.27,0,*63
1488006169.96,55708,7.44,72560.8,-15.09,-16.41,-16.45,0,*66
1488006171.22,55709,7.44,72562.8,-15.09,-16.31,-16.45,0,*60
1488006172.46,55710,7.44,72564.0,-15.09,-16.41,-16.45,0,*6F
1488006173.71,55711,7.44,72564.5,-15.09,-16.55,-16.59,0,*66
1488006174.98,55712,7.44,72568.5,-15.09,-16.55,-16.69,0,*66
1488006176.23,55713,7.44,72572.0,-15.09,-16.75,-16.83,0,*61
1488006177.47,55714,7.44,72570.3,-15.07,-16.55,-16.69,0,*6E
1488006178.72,55715,7.44,72572.0,-15.09,-16.45,-16.59,0,*63
1488006179.96,55716,7.44,72574.3,-15.09,-16.75,-16.83,0,*64
1488006181.21,55717,7.44,72572.8,-15.09,-16.89,-16.83,0,*66
1488006182.51,55718,7.44,72576.3,-15.09,-17.07,-17.07,0,*63
1488006183.75,55719,7.44,72572.8,-15.13,-16.89,-16.89,0,*69
1488006184.99,55720,7.44,72570.5,-15.13,-16.83,-16.97,0,*66
1488006186.26,55721,7.44,72566.8,-15.15,-17.07,-17.11,0,*63
1488006187.51,55722,7.44,72562.5,-15.13,-16.59,-16.75,0,*6F
1488006188.75,55723,7.44,72570.0,-15.13,-16.37,-16.37,0,*60
1488006190.05,55724,7.44,72574.3,-15.13,-16.17,-16.31,0,*63
1488006191.34,55725,7.44,72570.5,-15.13,-16.17,-16.31,0,*62
1488006192.59,55726,7.44,72582.3,-15.13,-16.45,-16.59,0,*68
1488006193.84,55727,7.44,72586.8,-15.13,-16.75,-16.83,0,*6D
1488006195.1,55728,7.44,72590.8,-15.13,-16.89,-17.03,0,*68
1488006196.37,55729,7.44,72586.3,-15.15,-17.93,-17.93,0,*6C
1488006197.61,55730,7.44,72578.0,-15.15,-17.83,-17.93,0,*65
1488006198.83,55731,7.44,72566.3,-15.15,-17.35,-17.35,0,*65
1488006200.07,55732,7.44,72554.3,-15.17,-16.75,-16.89,0,*67
1488006201.29,55733,7.44,72556.5,-15.15,-16.59,-16.59,0,*67
1488006202.54,55734,7.44,72554.8,-15.13,-16.45,-16.55,0,*67
1488006203.77,55735,7.44,72548.3,-15.17,-16.45,-16.45,0,*63
1488006204.99,55736,7.44,72536.5,-15.15,-16.45,-16.59,0,*6F
1488006206.22,55737,7.44,72530.3,-15.15,-16.75,-16.75,0,*63
1488006207.49,55738,7.44,72520.0,-15.15,-17.03,-17.03,0,*6C
1488006208.75,55739,7.44,72514.8,-15.15,-17.21,-17.25,0,*69
1488006210.02,55740,7.44,72498.8,-15.15,-17.41,-17.55,0,*66
1488006211.28,55741,7.44,72506.0,-15.17,-17.63,-17.69,0,*6A
1488006212.52,55742,7.44,72498.5,-15.19,-17.59,-17.69,0,*6E
1488006213.79,55743,7.44,72488.5,-15.19,-17.59,-17.59,0,*6C
1488006215.0,55744,7.44,72480.0,-15.19,-17.69,-17.73,0,*60
1488006216.22,55745,7.44,72476.8,-15.19,-17.87,-17.87,0,*6A
1488006217.43,55746,7.44,72512.3,-15.19,-18.17,-18.17,0,*69
1488006218.73,55747,7.44,72524.3,-15.21,-18.01,-17.97,0,*63
1488006220.0,55748,7.44,72520.0,-15.23,-17.93,-17.93,0,*6E
1488006221.26,55749,7.44,72496.0,-15.23,-17.93,-17.93,0,*6F
1488006222.5,55750,7.44,72484.0,-15.21,-17.69,-17.69,0,*65
1488006223.78,55751,7.5,72480.3,-15.21,-17.17,-17.31,0,*60
1488006225.04,55752,7.44,72484.0,-15.23,-17.11,-17.11,0,*65
1488006226.28,55753,7.44,72504.5,-15.23,-17.03,-16.97,0,*68
1488006227.57,55754,7.44,72516.5,-15.21,-16.51,-16.51,0,*61
1488006228.87,55755,7.44,72530.3,-15.21,-16.27,-16.27,0,*60
1488006230.12,55756,7.44,72542.3,-15.21,-16.37,-16.41,0,*62
1488006231.42,55757,7.44,72566.8,-15.21,-16.13,-16.09,0,*69
1488006232.7,55758,7.44,72572.3,-15.21,-16.03,-16.09,0,*67
1488006233.94,55759,7.44,72574.0,-15.19,-16.03,-16.09,0,*6D
1488006235.16,55760,7.44,72576.0,-15.19,-15.75,-15.75,0,*6D
1488006236.41,55761,7.44,72576.3,-15.17,-15.71,-15.75,0,*66
1488006237.68,55762,7.44,72576.8,-15.17,-15.75,-15.89,0,*62
1488006238.93,55763,7.44,72574.5,-15.15,-15.43,-15.49,0,*68
1488006240.18,55764,7.44,72578.8,-15.13,-15.25,-15.29,0,*6F
1488006241.43,55765,7.44,72580.0,-15.13,-15.29,-15.29,0,*62
1488006242.69,55766,7.44,72578.0,-15.13,-15.57,-15.67,0,*62
1488006243.96,55767,7.44,72576.0,-15.09,-16.31,-16.41,0,*6C
1488006245.23,55768,7.44,72574.3,-15.09,-16.17,-16.41,0,*67
1488006246.46,55769,7.44,72560.8,-15.07,-16.23,-16.41,0,*6F
1488006247.73,55770,7.44,72558.5,-15.07,-16.51,-16.65,0,*64
1488006248.96,55771,7.44,72562.5,-15.07,-16.93,-17.11,0,*69
1488006250.22,55772,7.44,72558.5,-15.07,-17.03,-17.17,0,*64
1488006251.5,55773,7.44,72550.5,-15.09,-17.21,-17.35,0,*6B
1488006252.75,55774,7.44,72538.3,-15.09,-17.35,-17.35,0,*69
1488006254.02,55775,7.44,72534.8,-15.09,-17.45,-17.49,0,*64
1488006255.29,55776,7.44,72524.3,-15.09,-17.49,-17.59,0,*6A
1488006256.56,55777,7.44,72534.5,-15.13,-17.45,-17.49,0,*6D
1488006257.83,55778,7.44,72534.3,-15.13,-17.49,-17.59,0,*6F
1488006259.1,55779,7.44,72536.0,-15.13,-17.49,-17.63,0,*67
1488006260.31,55780,7.5,72544.5,-15.15,-17.49,-17.49,0,*6F
1488006261.53,55781,7.44,72538.5,-15.15,-17.49,-17.49,0,*6E
1488006262.8,55782,7.44,72542.0,-15.15,-17.25,-17.41,0,*6F
1488006264.04,55783,7.44,72526.0,-15.15,-17.35,-17.41,0,*6F
1488006265.34,55784,7.44,72524.8,-15.13,-17.17,-17.17,0,*6D
1488006266.63,55785,7.44,72516.3,-15.17,-17.41,-17.55,0,*6D
1488006267.87,55786,7.44,72528.0,-15.17,-17.49,-17.49,0,*6B
1488006269.16,55787,7.44,72532.0,-15.17,-17.03,-17.03,0,*6A
1488006270.46,55788,7.44,72528.3,-15.17,-17.07,-17.07,0,*65
1488006271.68,55789,7.44,72532.8,-15.19,-16.83,-16.79,0,*6F
1488006272.98,55790,7.44,72536.3,-15.17,-17.11,-17.07,0,*6B
1488006274.27,55791,7.44,72522.3,-15.17,-17.07,-17.11,0,*6A
1488006275.49,55792,7.44,72508.0,-15.19,-16.79,-16.79,0,*60
1488006276.75,55793,7.5,72512.0,-15.17,-16.31,-16.45,0,*6C
1488006277.98,55794,7.44,72512.0,-15.17,-16.37,-16.37,0,*68
1488006279.27,55795,7.5,72518.0,-15.17,-16.23,-16.31,0,*6A
1488006280.56,55796,7.44,72522.3,-15.17,-16.23,-16.23,0,*6A
1488006281.8,55797,7.5,72538.0,-15.17,-16.37,-16.37,0,*6B
1488006283.07,55798,7.44,72542.0,-15.15,-16.17,-16.23,0,*61
1488006284.28,55799,7.44,72548.0,-15.15,-16.03,-16.03,0,*67
1488006285.55,55800,7.44,72544.0,-15.13,-16.03,-16.13,0,*6F
1488006286.79,55801,7.5,72550.3,-15.13,-15.99,-15.95,0,*63
1488006288.03,55802,7.44,72548.5,-15.13,-15.99,-15.95,0,*60
1488006289.32,55803,7.44,72550.0,-15.13,-15.85,-15.85,0,*6D
1488006290.56,55804,7.44,72550.8,-15.09,-15.99,-16.03,0,*61
1488006291.77,55805,7.5,72546.8,-15.07,-16.37,-16.41,0,*6F
1488006293.01,55806,7.44,72540.5,-15.07,-16.41,-16.51,0,*6C
1488006294.25,55807,7.44,72538.8,-15.07,-16.51,-16.55,0,*68
1488006295.47,55808,7.44,72534.0,-15.07,-16.41,-16.41,0,*63
1488006296.74,55809,7.44,72530.5,-15.07,-16.09,-16.13,0,*69
1488006297.98,55810,7.44,72532.3,-15.07,-16.51,-16.55,0,*6E
1488006299.19,55811,7.44,72534.3,-15.07,-16.41,-16.37,0,*6A
1488006300.46,55812,7.44,72534.0,-15.07,-16.13,-16.13,0,*68
1488006301.67,55813,7.44,72530.8,-15.07,-15.99,-15.99,0,*69
1488006302.96,55814,7.44,72532.8,-15.05,-15.81,-15.89,0,*64
1488006304.2,55815,7.44,72534.5,-15.03,-15.95,-15.89,0,*66
1488006305.46,55816,7.44,72526.0,-15.03,-16.23,-16.23,0,*68
1488006306.69,55817,7.44,72526.0,-15.03,-15.99,-16.13,0,*68
1488006307.94,55818,7.44,72532.8,-15.03,-16.09,-15.99,0,*6C
1488006309.21,55819,7.44,72542.3,-15.03,-16.09,-16.09,0,*67
1488006310.46,55820,7.44,72562.8,-15.01,-15.75,-15.75,0,*6F
1488006311.73,55821,7.44,72564.0,-15.01,-15.85,-15.75,0,*61
1488006313.0,55822,7.44,72564.3,-15.01,-16.03,-16.09,0,*67
1488006314.24,55823,7.44,72566.5,-14.99,-16.03,-16.09,0,*66
1488006315.48,55824,7.44,72562.8,-15.01,-15.95,-15.95,0,*6B
1488006316.69,55825,7.44,72560.0,-14.99,-15.95,-15.95,0,*6A
1488006317.9,55826,7.44,72560.5,-14.99,-16.45,-16.45,0,*69
1488006319.14,55827,7.44,72560.3,-14.99,-16.75,-16.65,0,*69
1488006320.41,55828,7.44,72558.5,-14.99,-16.65,-16.65,0,*67
1488006321.63,55829,7.44,72564.0,-14.99,-16.59,-16.59,0,*66
1488006322.9,55830,7.44,72566.5,-14.99,-16.09,-16.17,0,*61
1488006324.11,55831,7.44,72566.3,-14.99,-15.95,-15.95,0,*6F
1488006325.41,55832,7.44,72566.0,-15.01,-15.89,-15.85,0,*60
1488006326.67,55833,7.44,72560.8,-14.99,-15.85,-15.89,0,*61
1488006327.93,55834,7.44,72560.0,-14.99,-15.85,-15.89,0,*66
1488006329.17,55835,7.44,72552.8,-14.99,-16.03,-16.09,0,*61
1488006330.39,55836,7.44,72554.8,-14.99,-16.37,-16.37,0,*68
1488006331.62,55837,7.44,72546.3,-14.99,-16.31,-16.37,0,*6F
1488006332.88,55838,7.44,72550.3,-14.99,-16.17,-16.17,0,*66
1488006334.18,55839,7.44,72544.8,-14.97,-16.17,-16.27,0,*6A
1488006335.47,55840,7.44,72554.0,-14.97,-15.89,-16.13,0,*67
1488006336.74,55841,7.44,72544.8,-14.97,-16.69,-16.75,0,*6B
1488006338.0,55842,7.44,72552.5,-14.97,-17.03,-16.93,0,*6D
1488006339.24,55843,7.5,72546.5,-14.99,-17.25,-17.35,0,*6B
1488006340.51,55844,7.44,72532.3,-14.99,-17.41,-17.41,0,*6D
1488006341.77,55845,7.44,72532.0,-14.99,-17.63,-17.63,0,*6C
1488006343.03,55846,7.44,72518.8,-15.01,-17.69,-17.79,0,*6E
1488006344.29,55847,7.44,72470.8,-15.01,-17.79,-17.83,0,*6B
1488006345.52,55848,7.44,72508.3,-15.03,-17.83,-17.87,0,*67
1488006346.81,55849,7.44,72496.8,-15.05,-17.93,-18.01,0,*60
1488006348.08,55850,7.44,72510.3,-15.05,-17.87,-18.01,0,*6D
1488006349.37,55851,7.44,72522.0,-15.05,-17.25,-17.45,0,*6B
1488006350.61,55852,7.44,72522.3,-15.07,-16.97,-17.11,0,*63
1488006351.91,55853,7.44,72530.3,-15.09,-17.03,-17.07,0,*67
1488006353.15,55854,7.44,72532.3,-15.07,-16.93,-17.11,0,*61
1488006354.42,55855,7.44,72532.0,-15.07,-17.45,-17.59,0,*66
1488006355.63,55856,7.44,72532.3,-15.07,-17.73,-17.87,0,*63
1488006356.93,55857,7.44,72534.5,-15.09,-17.93,-17.97,0,*63
1488006358.19,55858,7.44,72534.8,-15.09,-17.87,-17.93,0,*6D
1488006359.47,55859,7.44,72532.8,-15.09,-17.97,-18.07,0,*6F
1488006360.68,55860,7.44,72530.3,-15.15,-18.11,-18.17,0,*68
1488006361.93,55861,7.44,72534.0,-15.13,-17.87,-17.87,0,*69
1488006363.19,55862,7.44,72540.3,-15.17,-17.69,-17.79,0,*6F
1488006364.45,55863,7.44,72554.0,-15.17,-17.63,-17.69,0,*65
1488006365.71,55864,7.44,72558.0,-15.17,-17.63,-17.69,0,*62
1488006366.98,55865,7.44,72546.5,-15.19,-17.41,-17.41,0,*67
1488006368.22,55866,7.44,72546.8,-15.19,-16.97,-17.11,0,*6B
1488006369.52,55867,7.44,72536.5,-15.17,-17.07,-17.03,0,*6F
1488006370.77,55868,7.44,72532.8,-15.19,-16.97,-17.07,0,*62
1488006372.01,55869,7.44,72530.0,-15.17,-16.75,-16.79,0,*69
1488006373.25,55870,7.44,72538.3,-15.19,-16.69,-16.79,0,*62
1488006374.55,55871,7.44,72544.0,-15.17,-16.65,-16.65,0,*6C
1488006375.79,55872,7.44,72536.5,-15.17,-16.75,-16.75,0,*6F
1488006377.04,55873,7.44,72518.0,-15.15,-16.93,-17.07,0,*60
1488006378.31,55874,7.44,72502.5,-15.15,-17.03,-17.07,0,*6F
1488006379.61,55875,7.44,72498.5,-15.17,-17.03,-17.07,0,*6C
1488006380.86,55876,7.44,72506.3,-15.17,-16.75,-16.79,0,*67
1488006382.07,55877,7.44,72514.8,-15.15,-16.89,-16.89,0,*68
1488006383.31,55878,7.44,72504.5,-15.15,-16.93,-17.03,0,*6F
1488006384.58,55879,7.44,72522.3,-15.15,-17.07,-17.07,0,*66
1488006385.85,55880,7.44,72514.5,-15.15,-17.11,-17.21,0,*63
1488006387.08,55881,7.44,72532.5,-15.17,-16.93,-16.93,0,*63
1488006388.32,55882,7.44,72532.0,-15.17,-16.89,-16.79,0,*6F
1488006389.59,55883,7.44,72520.3,-15.17,-16.89,-17.03,0,*62
1488006390.8,55884,7.44,72524.3,-15.15,-16.75,-16.79,0,*68
1488006392.09,55885,7.44,72520.8,-15.13,-16.31,-16.27,0,*64
1488006393.36,55886,7.44,72520.5,-15.13,-16.03,-16.17,0,*65
1488006394.61,55887,7.44,72532.8,-15.13,-16.03,-16.03,0,*61
1488006395.82,55888,7.44,72524.5,-15.15,-16.37,-16.45,0,*6D
1488006397.09,55889,7.44,72518.8,-15.15,-16.65,-16.65,0,*69
1488006398.33,55890,7.44,72500.5,-15.13,-16.41,-16.45,0,*63
1488006399.57,55891,7.44,72500.0,-15.09,-16.41,-16.41,0,*6D
1488006400.88,55892,7.44,72530.8,-15.09,-16.13,-16.17,0,*6A
1488006402.12,55893,7.44,72526.8,-15.07,-15.95,-16.09,0,*67
1488006403.37,55894,7.44,72518.5,-15.09,-16.45,-16.59,0,*65
1488006404.6,55895,7.44,72502.8,-15.07,-16.51,-16.55,0,*63
1488006405.89,55896,7.44,72506.0,-15.09,-16.31,-16.31,0,*6A
1488006407.14,55897,7.44,72498.0,-15.09,-16.41,-16.41,0,*6B
1488006408.41,55898,7.44,72498.0,-15.09,-16.03,-16.13,0,*65
1488006409.67,55899,7.44,72514.8,-15.07,-16.13,-16.23,0,*68
1488006410.94,55900,7.44,72504.0,-15.07,-16.09,-16.23,0,*62
1488006412.21,55901,7.44,72520.8,-15.07,-16.09,-16.27,0,*67
1488006413.45,55902,7.44,72536.0,-15.05,-15.95,-15.99,0,*66
1488006414.71,55903,7.44,72540.3,-15.05,-15.99,-16.09,0,*61
1488006415.98,55904,7.44,72532.8,-15.05,-16.51,-16.55,0,*68
1488006417.22,55905,7.44,72536.5,-15.05,-16.79,-16.93,0,*69
1488006418.44,55906,7.44,72534.0,-15.03,-16.79,-16.83,0,*6D
1488006419.71,55907,7.44,72510.0,-15.05,-16.97,-17.11,0,*60
1488006420.95,55908,7.44,72494.8,-15.05,-16.97,-16.97,0,*60
1488006422.25,55909,7.44,72482.0,-15.05,-17.03,-17.03,0,*61
1488006423.49,55910,7.44,72498.3,-15.05,-16.79,-16.79,0,*69
1488006424.76,55911,7.44,72520.0,-15.05,-16.65,-16.55,0,*6B
1488006426.06,55912,7.44,72524.3,-15.05,-16.65,-16.69,0,*67
1488006427.35,55913,7.44,72548.5,-15.05,-16.13,-16.23,0,*69
1488006428.59,55914,7.44,72550.5,-15.03,-16.37,-16.51,0,*6B
1488006429.86,55915,7.44,72578.8,-15.05,-15.99,-16.09,0,*66
1488006431.13,55916,7.44,72532.8,-15.05,-16.97,-17.03,0,*63
1488006432.39,55917,7.44,72530.8,-15.05,-16.93,-17.03,0,*66
1488006433.66,55918,7.44,72510.0,-15.05,-17.31,-17.45,0,*62
1488006434.86,55919,7.44,72510.0,-15.07,-17.73,-17.73,0,*62
1488006436.11,55920,7.44,72520.8,-15.09,-17.73,-17.87,0,*6D
1488006437.36,55921,7.44,72512.5,-15.09,-17.87,-17.87,0,*67
1488006438.65,55922,7.44,72514.0,-15.13,-17.63,-17.63,0,*6F
1488006439.94,55923,7.44,72518.0,-15.13,-17.59,-17.59,0,*6E
1488006441.2,55924,7.44,72514.8,-15.13,-17.73,-17.79,0,*63
1488006442.47,55925,7.44,72520.5,-15.13,-17.49,-17.59,0,*69
1488006443.74,55926,7.44,72522.3,-15.13,-17.45,-17.49,0,*67
1488006444.99,55927,7.44,72536.0,-15.15,-17.41,-17.49,0,*64
1488006446.2,55928,7.44,72538.5,-15.15,-17.31,-17.31,0,*63
1488006447.47,55929,7.44,72530.3,-15.15,-17.21,-17.07,0,*66
1488006448.69,55930,7.44,72534.3,-15.15,-16.75,-16.79,0,*66
1488006449.94,55931,7.44,72524.8,-15.15,-16.65,-16.75,0,*6A
1488006451.19,55932,7.44,72542.8,-15.13,-16.83,-16.83,0,*6E
1488006452.42,55933,7.44,72526.3,-15.13,-17.31,-17.31,0,*6F
1488006453.67,55934,7.44,72530.0,-15.15,-17.25,-17.35,0,*6F
1488006454.92,55935,7.44,72524.3,-15.15,-17.35,-17.41,0,*6C
1488006456.19,55936,7.44,72520.5,-15.15,-17.07,-17.07,0,*6C
1488006457.49,55937,7.44,72508.3,-15.17,-17.07,-17.07,0,*6F
1488006458.79,55938,7.44,72510.8,-15.17,-17.03,-17.07,0,*64
1488006460.08,55939,7.44,72522.8,-15.17,-17.03,-17.11,0,*62
1488006461.38,55940,7.44,72524.8,-15.17,-17.03,-17.07,0,*6B
1488006462.61,55941,7.44,72524.8,-15.17,-16.93,-16.93,0,*6E
1488006463.9,55942,7.44,72528.5,-15.17,-17.21,-17.25,0,*69
1488006465.12,55943,7.44,72530.8,-15.19,-16.97,-16.97,0,*62
1488006466.35,55944,7.44,72532.0,-15.17,-16.93,-16.93,0,*6B
1488006467.56,55945,7.44,72532.0,-15.19,-16.93,-16.93,0,*64
1488006468.8,55946,7.44,72528.0,-15.17,-16.75,-16.79,0,*65
1488006470.05,55947,7.44,72524.5,-15.17,-16.59,-16.75,0,*66
1488006471.32,55948,7.44,72530.3,-15.17,-16.65,-16.59,0,*68
1488006472.58,55949,7.44,72526.5,-15.17,-16.31,-16.37,0,*60
1488006473.85,55950,7.44,72526.8,-15.17,-16.51,-16.59,0,*66
1488006475.06,55951,7.44,72528.3,-15.15,-16.37,-16.45,0,*68
1488006476.3,55952,7.44,72522.8,-15.15,-16.37,-16.31,0,*68
1488006477.52,55953,7.44,72522.0,-15.15,-16.75,-16.75,0,*6F
1488006478.73,55954,7.44,72522.3,-15.15,-16.45,-16.45,0,*68
1488006479.99,55955,7.44,72530.5,-15.15,-16.31,-16.31,0,*69
1488006481.26,55956,7.44,72532.0,-15.13,-16.03,-16.13,0,*6D
1488006482.55,55957,7.44,72532.8,-15.13,-16.31,-16.31,0,*6D
1488006483.79,55958,7.44,72530.5,-15.13,-16.45,-16.41,0,*66
1488006485.08,55959,7.44,72530.0,-15.13,-16.31,-16.31,0,*63
1488006486.35,55960,7.44,72528.3,-15.13,-16.03,-16.13,0,*68
1488006487.59,55961,7.44,72530.3,-15.09,-16.03,-16.03,0,*63
1488006488.83,55962,7.44,72524.8,-15.09,-16.03,-16.03,0,*60
1488006490.1,55963,7.44,72538.5,-15.07,-16.09,-16.09,0,*6F
1488006491.31,55964,7.44,72542.3,-15.07,-16.37,-16.37,0,*68
1488006492.53,55965,7.44,72546.3,-15.07,-16.45,-16.41,0,*6D
1488006493.83,55966,7.44,72548.8,-15.09,-16.13,-16.13,0,*64
1488006495.1,55967,7.44,72550.3,-15.09,-16.13,-16.03,0,*64
1488006496.34,55968,7.44,72554.5,-15.09,-16.03,-16.03,0,*6A
1488006497.59,55969,7.44,72560.3,-15.09,-16.41,-16.41,0,*6B
1488006498.85,55970,7.44,72560.0,-15.07,-16.13,-16.23,0,*6E
1488006500.09,55971,7.44,72556.0,-15.07,-15.99,-16.09,0,*66
1488006501.35,55972,7.44,72554.5,-15.05,-15.99,-16.09,0,*67
1488006502.59,55973,7.44,72550.3,-15.05,-15.99,-15.99,0,*6C